Location: Izdebno
(52.6670°N, 16.2170°E)
Time: 17:03:03
(UTC+02:00)

SR - Pass Details

Date: 01 March 2024
Orbit: 577 x 862 km, 66.7° (Epoch: 21 April)

Event Time Altitude Azimuth Distance (km) Brightness Sun altitude
Rises 23:42:58 0° 311° (NW) 3,185 ? -44.2°
Enters shadow 23:43:57 - 306° (NW) 2,861 ? -44.2°
Reaches altitude 10° 23:46:19 10° 289° (WNW) 2,191 - -44.2°
Maximum altitude 23:49:07 15° 255° (WSW) 1,804 - -44.3°
Drops below altitude 10° 23:51:47 10° 220° (SW) 2,076 - -44.3°
Sets 23:54:51 0° 197° (SSW) 2,925 - -44.4°
